When you browse on this site, cookies collect data to enhance your experience and personalize the content and advertising you see.
Visit our Privacy Policy to learn more. By continuing to use the site, you agree to this use of cookies and data.
  • In Slovakia
  • List of Countries
  • For 7 days
  • Water Temperature
  • Satellite Maps
  • Weather Map
  • Weather Widgets
  • user-avatar
    Login

    Hourly Weather Graz

    Today, 19 November, Monday

    Time Temperature Precipitation Wind Pressure Humidity
    00:00 +2°C° 0.2 mm 1 mps 723 mmHg 88%
    01:00 +2°C° 0.2 mm 1 mps 722 mmHg 89%
    02:00 +2°C° 0.2 mm 1 mps 722 mmHg 90%
    03:00 +1°C° 0.2 mm 1 mps 722 mmHg 91%
    04:00 +1°C° 0.2 mm 1 mps 721 mmHg 91%
    05:00 +1°C° 0.2 mm 1 mps 721 mmHg 92%
    06:00 +1°C° 0.2 mm 1 mps 721 mmHg 92%
    07:00 +1°C° 0.2 mm 1 mps 721 mmHg 93%
    08:00 +1°C° 0.3 mm 1 mps 721 mmHg 89%
    09:00 +2°C° 0.3 mm 1 mps 721 mmHg 86%
    10:00 +3°C° 0.3 mm 1 mps 722 mmHg 82%
    11:00 +3°C° 0.2 mm 1 mps 721 mmHg 81%
    12:00 +3°C° 0.2 mm 1 mps 721 mmHg 80%
    13:00 +2°C° 0.2 mm 2 mps 721 mmHg 79%
    14:00 +2°C° 0.1 mm 2 mps 721 mmHg 82%
    15:00 +3°C° 0.1 mm 1 mps 721 mmHg 85%
    16:00 +2°C° 0.1 mm 1 mps 721 mmHg 88%
    17:00 +2°C° 0.1 mm 1 mps 721 mmHg 90%
    18:00 +2°C° 0.1 mm 1 mps 721 mmHg 91%
    19:00 +2°C° 0.1 mm 1 mps 721 mmHg 93%
    20:00 +2°C° 0.2 mm 1 mps 721 mmHg 93%
    21:00 +2°C° 0.2 mm 1 mps 721 mmHg 93%
    22:00 +2°C° 0.2 mm 1 mps 721 mmHg 94%
    23:00 +1°C° 0.5 mm 2 mps 721 mmHg 94%

    Tomorrow, 20 November, Tuesday

    Time Temperature Precipitation Wind Pressure Humidity
    00:00 +1°C° 0.5 mm 2 mps 720 mmHg 93%
    01:00 +1°C° 0.5 mm 2 mps 720 mmHg 93%
    02:00 +1°C° 1.4 mm 2 mps 719 mmHg 94%
    03:00 +1°C° 1.4 mm 2 mps 719 mmHg 94%
    04:00 +1°C° 1.4 mm 2 mps 718 mmHg 95%
    05:00 +1°C° 1.5 mm 2 mps 718 mmHg 94%
    06:00 +1°C° 1.5 mm 2 mps 717 mmHg 94%
    07:00 +1°C° 1.5 mm 2 mps 717 mmHg 94%
    08:00 +1°C° 0.8 mm 2 mps 717 mmHg 94%
    09:00 +1°C° 0.8 mm 2 mps 717 mmHg 95%
    10:00 +2°C° 0.8 mm 2 mps 717 mmHg 95%
    11:00 +3°C° 0.3 mm 1 mps 717 mmHg 94%
    12:00 +3°C° 0.3 mm 1 mps 717 mmHg 94%
    13:00 +4°C° 0.3 mm 1 mps 717 mmHg 93%
    14:00 +4°C° 0 mm 1 mps 717 mmHg 94%
    15:00 +4°C° 0 mm 1 mps 718 mmHg 96%
    16:00 +3°C° 0 mm 1 mps 718 mmHg 97%
    17:00 +2°C° 0 mm 0 mps 718 mmHg 97%
    18:00 +1°C° 0 mm 0 mps 718 mmHg 97%
    19:00 0°C° 0 mm 0 mps 719 mmHg 97%
    20:00 0°C° 0 mm 0 mps 719 mmHg 96%
    21:00 0°C° 0 mm 0 mps 720 mmHg 95%
    22:00 0°C° 0 mm 0 mps 720 mmHg 95%
    23:00 0°C° 0 mm 0 mps 720 mmHg 94%

    Day after tomorrow, 21 November, Wednesday

    Time Temperature Precipitation Wind Pressure Humidity
    00:00 +1°C° 0 mm 1 mps 720 mmHg 94%
    01:00 0°C° 0 mm 1 mps 720 mmHg 93%
    02:00 0°C° 0 mm 1 mps 720 mmHg 93%
    03:00 +1°C° 0 mm 1 mps 720 mmHg 93%
    04:00 0°C° 0 mm 0 mps 720 mmHg 92%
    05:00 +1°C° 0 mm 1 mps 721 mmHg 93%
    06:00 +1°C° 0 mm 1 mps 721 mmHg 94%
    07:00 +1°C° 0 mm 1 mps 721 mmHg 94%
    08:00 +2°C° 0 mm 1 mps 721 mmHg 93%
    09:00 +3°C° 0 mm 0 mps 722 mmHg 93%
    10:00 +5°C° 0 mm 0 mps 722 mmHg 92%
    11:00 +6°C° 0 mm 1 mps 722 mmHg 92%
    12:00 +7°C° 0 mm 1 mps 722 mmHg 92%
    13:00 +7°C° 0 mm 1 mps 722 mmHg 92%
    14:00 +7°C° 0 mm 1 mps 722 mmHg 94%
    15:00 +6°C° 0 mm 1 mps 722 mmHg 96%
    16:00 +5°C° 0 mm 1 mps 722 mmHg 98%
    17:00 +5°C° 0 mm 1 mps 722 mmHg 98%
    18:00 +5°C° 0 mm 1 mps 722 mmHg 98%
    19:00 +5°C° 0 mm 1 mps 723 mmHg 98%
    20:00 +4°C° 0 mm 0 mps 723 mmHg 98%
    21:00 +4°C° 0 mm 0 mps 724 mmHg 98%
    22:00 +3°C° 0 mm 0 mps 724 mmHg 98%
    23:00 +3°C° 0 mm 0 mps 724 mmHg 97%

    22 November, Thursday

    Time Temperature Precipitation Wind Pressure Humidity
    00:00 +3°C° 0 mm 0 mps 724 mmHg 97%
    01:00 +3°C° 0 mm 0 mps 724 mmHg 97%
    02:00 +3°C° 0 mm 0 mps 725 mmHg 96%
    03:00 +3°C° 0 mm 0 mps 725 mmHg 96%
    04:00 +2°C° 0 mm 0 mps 725 mmHg 96%
    05:00 +2°C° 0 mm 0 mps 725 mmHg 96%
    06:00 +2°C° 0 mm 0 mps 725 mmHg 95%
    07:00 +2°C° 0 mm 0 mps 726 mmHg 95%
    08:00 +3°C° 0 mm 0 mps 726 mmHg 94%
    09:00 +4°C° 0 mm 0 mps 727 mmHg 93%
    10:00 +5°C° 0 mm 0 mps 727 mmHg 92%
    11:00 +6°C° 0 mm 0 mps 727 mmHg 91%
    12:00 +7°C° 0 mm 0 mps 727 mmHg 90%
    13:00 +7°C° 0 mm 0 mps 727 mmHg 89%
    14:00 +6°C° 0 mm 0 mps 727 mmHg 92%
    15:00 +6°C° 0 mm 0 mps 727 mmHg 94%
    16:00 +5°C° 0 mm 0 mps 728 mmHg 97%
    17:00 +4°C° 0 mm 0 mps 728 mmHg 97%
    18:00 +4°C° 0 mm 0 mps 728 mmHg 97%
    19:00 +4°C° 0 mm 0 mps 729 mmHg 97%
    20:00 +4°C° 0 mm 0 mps 729 mmHg 97%
    21:00 +4°C° 0 mm 0 mps 729 mmHg 97%
    22:00 +4°C° 0 mm 0 mps 730 mmHg 97%
    23:00 +3°C° 0 mm 0 mps 730 mmHg 96%

    23 November, Friday

    Time Temperature Precipitation Wind Pressure Humidity
    00:00 +3°C° 0 mm 0 mps 730 mmHg 96%
    01:00 +3°C° 0 mm 0 mps 730 mmHg 95%
    02:00 +3°C° 0 mm 0 mps 730 mmHg 95%
    03:00 +2°C° 0 mm 0 mps 730 mmHg 95%
    04:00 +2°C° 0 mm 0 mps 730 mmHg 94%
    05:00 +2°C° 0 mm 0 mps 730 mmHg 94%
    06:00 +2°C° 0 mm 0 mps 730 mmHg 94%
    07:00 +2°C° 0 mm 0 mps 731 mmHg 94%
    08:00 +3°C° 0 mm 0 mps 731 mmHg 93%
    09:00 +4°C° 0 mm 0 mps 731 mmHg 92%
    10:00 +6°C° 0 mm 0 mps 731 mmHg 91%
    11:00 +7°C° 0 mm 1 mps 731 mmHg 90%
    12:00 +7°C° 0 mm 1 mps 731 mmHg 90%
    13:00 +8°C° 0 mm 1 mps 731 mmHg 89%
    14:00 +7°C° 0 mm 1 mps 731 mmHg 91%
    15:00 +7°C° 0 mm 1 mps 730 mmHg 93%
    16:00 +6°C° 0 mm 1 mps 730 mmHg 96%
    17:00 +6°C° 0 mm 1 mps 730 mmHg 96%
    18:00 +5°C° 0 mm 1 mps 730 mmHg 97%
    19:00 +5°C° 0 mm 1 mps 730 mmHg 97%
    20:00 +5°C° 0 mm 1 mps 730 mmHg 97%
    21:00 +5°C° 0 mm 1 mps 730 mmHg 97%
    22:00 +5°C° 0 mm 1 mps 729 mmHg 97%
    23:00 +5°C° 0 mm 1 mps 729 mmHg 97%

    24 November, Saturday

    Time Temperature Precipitation Wind Pressure Humidity
    00:00 +4°C° 0 mm 1 mps 729 mmHg 97%
    01:00 +4°C° 0 mm 1 mps 728 mmHg 97%
    02:00 +4°C° 0 mm 1 mps 728 mmHg 97%
    03:00 +4°C° 0 mm 1 mps 728 mmHg 97%
    04:00 +3°C° 0 mm 1 mps 727 mmHg 97%
    05:00 +3°C° 0 mm 1 mps 727 mmHg 96%
    06:00 +3°C° 0 mm 1 mps 727 mmHg 96%
    07:00 +4°C° 0 mm 1 mps 726 mmHg 95%
    08:00 +4°C° 0.1 mm 1 mps 726 mmHg 94%
    09:00 +5°C° 0.1 mm 1 mps 726 mmHg 92%
    10:00 +6°C° 0.1 mm 1 mps 726 mmHg 91%
    11:00 +7°C° 0.1 mm 1 mps 725 mmHg 91%
    12:00 +8°C° 0.1 mm 1 mps 725 mmHg 91%
    13:00 +8°C° 0.1 mm 1 mps 724 mmHg 90%
    14:00 +8°C° 0.1 mm 1 mps 724 mmHg 92%
    15:00 +8°C° 0.1 mm 1 mps 724 mmHg 94%
    16:00 +7°C° 0.1 mm 1 mps 724 mmHg 96%
    17:00 +7°C° 0.1 mm 1 mps 724 mmHg 96%
    18:00 +7°C° 0.1 mm 1 mps 724 mmHg 96%
    19:00 +6°C° 0.1 mm 1 mps 725 mmHg 96%
    20:00 +6°C° 0.1 mm 1 mps 725 mmHg 96%
    21:00 +6°C° 0.1 mm 1 mps 725 mmHg 95%
    22:00 +6°C° 0.1 mm 1 mps 725 mmHg 95%
    23:00 +6°C° 0.1 mm 1 mps 725 mmHg 95%
    Show more